{"data":{"norad_id":55668,"epoch":"2026-05-24T22:24:20.124000Z","epoch_age_seconds":74095,"freshness":"FRESH","line1":"1 55668U 23021AS  26144.93356625  .00000156  00000+0  20869-4 0  9994","line2":"2 55668  69.9996 332.2772 0002860 265.4819  94.6013 14.98330567180690","mean_motion":14.98330567,"eccentricity":0.000286,"inclination_deg":69.9996,"raan_deg":332.2772,"arg_perigee_deg":265.4819,"mean_anomaly_deg":94.6013,"bstar":2.0869e-5,"rev_number":18069,"period_min":96.106962756771,"perigee_km":570.0663828789,"apogee_km":574.04189220958,"semimajor_km":6950.1911375442,"source":"CELESTRAK","updated_at":"2026-05-25T13:38:17.875513Z"}}